Showing default

EAGLEEYE, 60508

Orbit data source: Space-Track

EAGLEEYE, 60508 is a Polish payload satellite in SSO that was launched on Fri, 16 Aug 2024 UTC via an FALCON 9 launch vehicle from the Air Force Western Test Range (AFWTR). Payload-class satellites include a variety of spacecraft equipped with specific instruments for various scientific and technological missions. These include communications satellites like Starlink; space stations such as the ISS; scientific satellites like the Hubble; Earth observation satellites from companies like Planet Labs, Umbra, and HawkEye 360; GPS; miniature CubeSats for education and research; and military/defense satellites.

Loading next visibility...
Identifier
60508, 2024-149AS
Orbit
SSO
Country
Flag of PLPL / POL
Related business
Manufacturer
CREO
Mission
Operational Commercial Imaging
Bus & Motor
HYPERSAT, Unknown motor
Mass
55 kg wet, 55 kg dry
Launch date (UTC)
2024-08-16 (1 year ago)
Launch vehicle
FALCON 9
Launch site
Air Force Western Test Range (AFWTR)
Object type
Payload
Rocket body
Debris
Shape & HBR
Box + 2 Pan, 0.8 m
Radar Cross Section
0.714 m², Medium (>0.1 m² and < 1m²)

Expand to show TLE details & history
Last TLE update: 15 hours ago

TLE from 15 hours ago
0 EAGLEEYE
1 60508U 24149AS  25310.68711022  .00049177  00000-0  11057-2 0  9991
2 60508  97.3971  31.6863 0003220   1.3687 358.7569 15.43172505 68343
Epoch: 2025-11-06T16:29Z
TLE epoch observation values (Epoch: 2025-11-06T16:29:26.323Z)
Latitude
0.00001°
Longitude
98.18476°
Altitude
437.681 km
Speed
7.65 km/s
True Right ascension
02h 06m 44s
True Declination
0° 00' 00"
Sunlit
Object was in full shadow at epoch
Visualization orbit readout
Latitude
Unknown
Longitude
Unknown
Altitude
Unknown
Speed
Unknown
Apparent Right ascension
Unknown
Apparent Declination
Unknown
Sunlit
N/A
Visualization observer readout
Local Sidereal Time
03:21:27
Azimuth
Unknown
Elevation
Unknown
Doppler factor
Unknown
Orbital elements
Apogee altitude
435.881 km
Perigee altitude
431.494 km
Semi-major axis
6,811.825 km
Eccentricity
0.00032
Inclination
97.3971°
RAAN
31.6863°
Arg. of periapsis
1.3687°
True anomaly
358.7561°
Mean anomaly
358.7569°
Eccentric anomaly
358.7565°
Mean motion
3.86054 °/min
Orbital period
93.25 mins
BSTAR
0.0011057
Loading maneuver chart data...
Computing Atmospheric mass density...
Loading historical data...
Loading historical data...
Loading historical data...
Loading historical data...
Loading historical data...
Loading historical data...
Loading historical data...

Documentation

Showing up to 5 results
|